Location: St. Louis
(38.6270°N, 90.1994°W)
Time: 03:50:43
(UTC-05:00)

RS-15 - Pass Details

Date: 01 February 2022
Orbit: 1881 x 2163 km, 64.8° (Epoch: 20 May)

Event Time Altitude Azimuth Distance (km) Brightness Sun altitude
Rises 21:49:48 0° 309° (NW) 5,600 11.0 -51.7°
Reaches altitude 10° 21:54:57 10° 327° (NNW) 4,636 10.3 -52.6°
Maximum altitude 22:03:07 19° 10° (N) 3,941 9.6 -54.0°
Enters shadow 22:03:40 19° 13° (NNE) 3,947 9.6 -54.1°
